Evansville, IN

6:25 PM CDT on September 21, 2017 (GMT -0500)
Evansville Regional

Weather History for KEVV - March, 2014

Change the Weather History Date:

Sunday, March 16, 2014

  Actual Average Record
Temperature  
Mean Temperature 41 °F 46 °F  
Max Temperature 51 °F 57 °F 83 °F (1945)
Min Temperature 30 °F 35 °F 14 °F (1900)
Degree Days  
Heating Degree Days 24 19  
Month to date heating degree days 397 344  
Since 1 July heating degree days 4359 3918  
Cooling Degree Days 0 0  
Month to date cooling degree days 0 0  
Year to date cooling degree days 0 0  
Moisture  
Dew Point 28 °F    
Average Humidity 67    
Maximum Humidity 85    
Minimum Humidity 48    
Precipitation  
Precipitation 0.29 in 0.14 in 2.71 in (1919)
Month to date precipitation 1.31 2.03  
Year to date precipitation 5.26 8.30  
Snow  
Snow 0.20 in 0.00 in 0.20 in (2014)
Month to date snowfall 2.4 0.7  
Since 1 July snowfall 12.4 11.4  
Snow Depth 0.00 in    
Sea Level Pressure  
Sea Level Pressure 29.95 in    
Wind  
Wind Speed 17 mph (NE)    
Max Wind Speed 26 mph    
Max Gust Speed 34 mph    
Visibility 7 miles    
Events Rain , Snow    
T = Trace of Precipitation, MM = Missing Value Source: NWS Daily Summary

Daily Weather History Graph

Daily Weather History Graph

Search for Another Location

Airport or City:

Trip Planner

Search our weather history database for the weather conditions in past years. The results will help you decide how hot, cold, wet, or windy it might be!

Date:

Astronomy

Mar. 16, 2014 Rise Set
Actual Time 6:59 AM CDT 6:58 PM CDT
Civil Twilight 6:33 AM CDT 7:24 PM CDT
Nautical Twilight 6:02 AM CDT 7:55 PM CDT
Astronomical Twilight 5:32 AM CDT 8:26 PM CDT
Moon 7:14 PM CDT (3/16) 6:43 AM CDT (3/16)
Length of Visible Light 12h 51m
Length of Day
11h 58m
Full, 100% of the Moon is Illuminated
Mar 16
Full
Mar 16
Full
Mar 23
Last Quarter
Mar 30
New
Apr 7
First Quarter

Hourly Weather History & Observations

Time (CDT) Temp. Windchill Dew Point Humidity Pressure Visibility Wind Dir Wind Speed Gust Speed Precip Events Conditions
12:54 AM 51.1 °F - 32.0 °F 48% 29.96 in 10.0 mi NE 10.4 mph - N/A   Overcast
1:54 AM 50.0 °F - 32.0 °F 50% 29.99 in 10.0 mi ENE 10.4 mph - N/A   Mostly Cloudy
2:54 AM 48.0 °F - 30.0 °F 50% 29.97 in 10.0 mi ENE 13.8 mph - N/A   Overcast
3:54 AM 46.9 °F - 28.9 °F 50% 29.94 in 10.0 mi ENE 18.4 mph - N/A   Overcast
4:54 AM 45.0 °F 37.6 °F 30.0 °F 56% 29.93 in 10.0 mi NE 17.3 mph 25.3 mph N/A   Overcast
5:54 AM 44.1 °F 36.8 °F 30.9 °F 60% 29.91 in 10.0 mi ENE 16.1 mph 27.6 mph N/A   Overcast
6:54 AM 42.1 °F 32.8 °F 30.0 °F 62% 29.91 in 10.0 mi ENE 21.9 mph 27.6 mph N/A   Overcast
7:54 AM 39.9 °F 31.1 °F 28.0 °F 63% 29.93 in 10.0 mi ENE 17.3 mph 28.8 mph N/A   Overcast
8:54 AM 39.9 °F 29.7 °F 27.0 °F 60% 29.97 in 10.0 mi NE 23.0 mph 31.1 mph 0.00 in   Overcast
9:54 AM 37.9 °F 27.1 °F 27.0 °F 65% 29.99 in 10.0 mi NE 23.0 mph 29.9 mph 0.00 in Rain Light Rain
10:54 AM 36.0 °F 25.3 °F 30.0 °F 79% 29.99 in 5.0 mi NE 19.6 mph - 0.03 in Rain Rain
11:54 AM 35.1 °F 23.5 °F 28.9 °F 78% 29.98 in 9.0 mi NE 21.9 mph - 0.03 in Rain Light Rain
12:54 PM 35.1 °F 24.1 °F 28.9 °F 78% 29.96 in 6.0 mi NE 19.6 mph 27.6 mph 0.04 in Rain Rain
1:54 PM 35.1 °F 23.3 °F 28.9 °F 78% 29.94 in 6.0 mi NE 23.0 mph 27.6 mph 0.03 in Rain Light Rain
2:54 PM 35.1 °F 23.8 °F 27.0 °F 72% 29.93 in 8.0 mi NE 20.7 mph 28.8 mph 0.02 in Rain Rain
3:54 PM 34.0 °F 23.4 °F 26.1 °F 73% 29.93 in 9.0 mi NE 17.3 mph 32.2 mph 0.03 in Rain Rain
4:54 PM 32.0 °F 20.8 °F 28.0 °F 85% 29.95 in 3.0 mi NNE 17.3 mph - 0.06 in Snow Light Snow
4:59 PM 32.0 °F 20.8 °F 28.0 °F 85% 29.94 in 1.8 mi NNE 17.3 mph - 0.00 in Snow Light Snow
5:06 PM 32.0 °F 21.2 °F 28.0 °F 85% 29.94 in 1.0 mi NNE 16.1 mph - 0.02 in Snow Light Snow
5:22 PM 32.0 °F 21.2 °F 28.9 °F 88% 29.94 in 1.5 mi NE 16.1 mph - 0.03 in Snow Light Snow
5:25 PM 32.0 °F 20.5 °F 28.9 °F 88% 29.94 in 2.0 mi NE 18.4 mph - 0.03 in Snow Light Snow
5:34 PM 32.0 °F 22.1 °F 28.9 °F 88% 29.94 in 5.0 mi NE 13.8 mph - 0.04 in Snow Light Snow
5:54 PM 32.0 °F 22.1 °F 28.9 °F 88% 29.95 in 2.0 mi NNE 13.8 mph - 0.04 in Snow Light Snow
6:02 PM 32.0 °F 23.0 °F 28.9 °F 88% 29.94 in 1.8 mi NE 11.5 mph - 0.01 in Snow Light Snow
6:10 PM 32.0 °F 23.0 °F 28.9 °F 88% 29.94 in 2.5 mi NNE 11.5 mph - 0.01 in Snow Light Snow
6:17 PM 32.0 °F 22.5 °F 28.9 °F 88% 29.94 in 4.0 mi NNE 12.7 mph - 0.01 in Snow Light Snow
6:54 PM 33.1 °F 25.5 °F 28.9 °F 85% 29.95 in 10.0 mi NNE 9.2 mph - 0.01 in   Overcast
7:54 PM 34.0 °F 23.4 °F 21.9 °F 61% 29.96 in 10.0 mi NNE 17.3 mph - N/A   Overcast
8:54 PM 33.1 °F 22.2 °F 21.0 °F 61% 29.99 in 10.0 mi NNE 17.3 mph - N/A   Overcast
9:37 PM 32.0 °F 22.5 °F 21.0 °F 64% 29.98 in 10.0 mi NNE 12.7 mph - N/A   Overcast
9:54 PM 32.0 °F 20.5 °F 19.0 °F 59% 29.98 in 10.0 mi NNE 18.4 mph 24.2 mph N/A   Overcast
10:54 PM 30.9 °F 20.2 °F 19.0 °F 61% 30.00 in 10.0 mi NNE 15.0 mph - N/A   Overcast
11:54 PM 30.9 °F 21.7 °F 18.0 °F 59% 30.00 in 10.0 mi NNE 11.5 mph - N/A   Overcast